Time,TemperatureF,DewpointF,PressureIn,WindDirection,WindDirectionDegrees,WindSpeedMPH,WindSpeedGustMPH,Humidity,HourlyPrecipIn,Conditions,Clouds,dailyrainin,SolarRadiationWatts/m^2,SoftwareType,DateUTC
2013-01-14 00:01:00,25.2,1.3,30.07,NNW,335,3.5,3.5,35,0.00,CLR,,0.00,0.0,WeatherDisplay:10.37,2013-01-14 08:01:00,
2013-01-14 00:06:00,25.2,1.3,30.06,NNW,335,3.8,3.8,35,0.00,CLR,,0.00,368.1,WeatherDisplay:10.37,2013-01-14 08:06:00,
2013-01-14 00:11:00,24.4,1.8,30.07,NNE,20,2.3,2.3,37,0.00,CLR,,0.00,0.0,WeatherDisplay:10.37,2013-01-14 08:11:00,
2013-01-14 00:16:00,24.3,1.7,30.06,NNE,20,2.3,2.3,37,0.00,CLR,,0.00,0.0,WeatherDisplay:10.37,2013-01-14 08:16:00,
2013-01-14 00:21:00,24.3,1.7,30.07,ENE,65,3.5,3.5,37,0.00,CLR,,0.00,0.0,WeatherDisplay:10.37,2013-01-14 08:21:00,
2013-01-14 00:26:00,24.1,1.5,30.07,NNE,20,3.5,3.5,37,0.00,CLR,,0.00,0.0,WeatherDisplay:10.37,2013-01-14 08:26:00,
2013-01-14 00:31:00,24.1,1.5,30.07,NNE,20,3.5,3.5,37,0.00,CLR,,0.00,0.0,WeatherDisplay:10.37,2013-01-14 08:31:00,
2013-01-14 00:36:00,24.3,1.1,30.07,NNE,20,3.5,3.5,36,0.00,CLR,,0.00,0.0,WeatherDisplay:10.37,2013-01-14 08:36:00,
2013-01-14 00:41:00,24.3,1.7,30.07,NNE,20,3.5,3.5,37,0.00,CLR,,0.00,0.0,WeatherDisplay:10.37,2013-01-14 08:41:00,
2013-01-14 00:46:00,24.3,1.1,30.08,NNE,20,3.5,3.5,36,0.00,CLR,,0.00,0.0,WeatherDisplay:10.37,2013-01-14 08:46:00,
2013-01-14 00:51:00,24.3,1.1,30.08,NNE,20,3.5,3.5,36,0.00,CLR,,0.00,0.0,WeatherDisplay:10.37,2013-01-14 08:51:00,
2013-01-14 00:56:00,24.1,1.5,30.08,NNE,20,4.6,4.6,37,0.00,CLR,,0.00,0.0,WeatherDisplay:10.37,2013-01-14 08:56:00,
2013-01-14 01:01:00,23.9,1.4,30.08,NNE,20,3.5,3.5,37,0.00,CLR,,0.00,0.0,WeatherDisplay:10.37,2013-01-14 09:01:00,
2013-01-14 01:06:00,23.9,1.4,30.08,NNE,20,3.5,3.5,37,0.00,CLR,,0.00,0.0,WeatherDisplay:10.37,2013-01-14 09:06:00,
2013-01-14 01:11:00,23.5,1.6,30.09,NNE,20,3.5,3.5,38,0.00,CLR,,0.00,0.0,WeatherDisplay:10.37,2013-01-14 09:11:00,
2013-01-14 01:16:00,23.7,1.2,30.09,NNE,20,3.5,3.5,37,0.00,CLR,,0.00,0.0,WeatherDisplay:10.37,2013-01-14 09:16:00,
2013-01-14 01:21:00,23.7,0.6,30.09,ENE,65,2.3,0.0,36,0.00,CLR,,0.00,212.8,WeatherDisplay:10.37,2013-01-14 09:21:00,
2013-01-14 01:26:00,23.7,0.6,30.09,ESE,110,4.6,4.6,36,0.00,CLR,,0.00,0.0,WeatherDisplay:10.37,2013-01-14 09:26:00,
2013-01-14 01:31:00,24.4,1.3,30.10,ESE,110,1.1,0.0,36,0.00,CLR,,0.00,212.8,WeatherDisplay:10.37,2013-01-14 09:31:00,
2013-01-14 01:36:00,24.6,0.8,30.10,ESE,110,1.1,0.0,35,0.00,CLR,,0.00,0.0,WeatherDisplay:10.37,2013-01-14 09:36:00,
2013-01-14 01:41:00,24.6,0.8,30.10,SSE,155,1.1,1.1,35,0.00,CLR,,0.00,161.0,WeatherDisplay:10.37,2013-01-14 09:41:00,
2013-01-14 01:46:00,24.6,0.8,30.11,ENE,65,3.5,3.5,35,0.00,CLR,,0.00,161.0,WeatherDisplay:10.37,2013-01-14 09:46:00,
2013-01-14 01:51:00,23.9,0.2,30.11,ENE,65,2.3,0.0,35,0.00,CLR,,0.00,161.0,WeatherDisplay:10.37,2013-01-14 09:51:00,
2013-01-14 01:56:00,23.4,0.9,30.10,ENE,65,3.1,3.1,37,0.00,CLR,,0.00,161.0,WeatherDisplay:10.37,2013-01-14 09:56:00,
2013-01-14 02:01:00,23.2,1.3,30.11,NNE,20,2.3,2.3,38,0.00,CLR,,0.00,161.0,WeatherDisplay:10.37,2013-01-14 10:01:00,
2013-01-14 02:06:00,23.2,1.3,30.10,NNE,20,2.3,2.3,38,0.00,CLR,,0.00,161.0,WeatherDisplay:10.37,2013-01-14 10:06:00,
2013-01-14 02:11:00,22.8,1.5,30.11,ENE,65,1.1,0.0,39,0.00,CLR,,0.00,109.2,WeatherDisplay:10.37,2013-01-14 10:11:00,
2013-01-14 02:16:00,22.6,1.4,30.11,NNE,20,3.5,3.5,39,0.00,CLR,,0.00,0.0,WeatherDisplay:10.37,2013-01-14 10:16:00,
2013-01-14 02:21:00,23.0,1.1,30.11,ENE,65,3.5,0.0,38,0.00,CLR,,0.00,109.2,WeatherDisplay:10.37,2013-01-14 10:21:00,
2013-01-14 02:26:00,22.8,1.0,30.11,ENE,65,4.6,4.6,38,0.00,CLR,,0.00,0.0,WeatherDisplay:10.37,2013-01-14 10:26:00,
2013-01-14 02:31:00,22.5,1.2,30.11,NNE,20,5.8,5.8,39,0.00,CLR,,0.00,109.2,WeatherDisplay:10.37,2013-01-14 10:31:00,
2013-01-14 02:36:00,22.5,1.2,30.11,NNE,20,5.8,5.8,39,0.00,CLR,,0.00,0.0,WeatherDisplay:10.37,2013-01-14 10:36:00,
2013-01-14 02:41:00,22.5,1.2,30.12,NNE,20,3.5,3.5,39,0.00,CLR,,0.00,57.5,WeatherDisplay:10.37,2013-01-14 10:41:00,
2013-01-14 02:46:00,22.8,1.0,30.11,NNE,20,3.5,3.5,38,0.00,CLR,,0.00,57.5,WeatherDisplay:10.37,2013-01-14 10:46:00,
2013-01-14 02:51:00,23.0,1.1,30.11,NNE,20,3.5,3.5,38,0.00,CLR,,0.00,57.5,WeatherDisplay:10.37,2013-01-14 10:51:00,
2013-01-14 02:56:00,22.8,1.5,30.11,NNE,20,1.1,1.1,39,0.00,CLR,,0.00,57.5,WeatherDisplay:10.37,2013-01-14 10:56:00,
2013-01-14 03:01:00,22.8,1.0,30.11,NNE,20,1.1,0.0,38,0.00,CLR,,0.00,57.5,WeatherDisplay:10.37,2013-01-14 11:01:00,
2013-01-14 03:06:00,22.8,1.0,30.11,NNE,20,1.1,0.0,38,0.00,CLR,,0.00,57.5,WeatherDisplay:10.37,2013-01-14 11:06:00,
2013-01-14 03:11:00,22.3,0.5,30.11,NNW,335,3.5,3.5,38,0.00,CLR,,0.00,5.7,WeatherDisplay:10.37,2013-01-14 11:11:00,
2013-01-14 03:16:00,22.6,5.9,30.11,NNW,335,3.5,3.5,48,0.00,CLR,,0.00,5.7,WeatherDisplay:10.37,2013-01-14 11:16:00,
2013-01-14 03:21:00,23.4,3.6,30.11,NNE,20,3.5,3.5,42,0.00,CLR,,0.00,0.0,WeatherDisplay:10.37,2013-01-14 11:21:00,
2013-01-14 03:26:00,23.2,1.8,30.11,NNE,20,1.1,0.0,39,0.00,CLR,,0.00,5.7,WeatherDisplay:10.37,2013-01-14 11:26:00,
2013-01-14 03:31:00,23.0,0.6,30.11,NNE,20,2.3,2.3,37,0.00,CLR,,0.00,0.0,WeatherDisplay:10.37,2013-01-14 11:31:00,
2013-01-14 03:36:00,22.8,0.4,30.11,NNE,20,1.1,0.0,37,0.00,CLR,,0.00,5.7,WeatherDisplay:10.37,2013-01-14 11:36:00,
2013-01-14 03:41:00,22.8,0.4,30.10,WNW,290,1.1,0.0,37,0.00,CLR,,0.00,0.0,WeatherDisplay:10.37,2013-01-14 11:41:00,
2013-01-14 03:46:00,22.6,0.2,30.10,WNW,290,1.1,1.1,37,0.00,CLR,,0.00,13207.9,WeatherDisplay:10.37,2013-01-14 11:46:00,
2013-01-14 03:51:00,22.5,0.1,30.11,NNW,335,1.1,0.0,37,0.00,CLR,,0.00,13207.9,WeatherDisplay:10.37,2013-01-14 11:51:00,
2013-01-14 03:56:00,22.6,0.2,30.11,ESE,110,1.1,0.0,37,0.00,CLR,,0.00,13207.9,WeatherDisplay:10.37,2013-01-14 11:56:00,
2013-01-14 04:01:00,22.3,-0.1,30.11,ENE,65,1.1,0.0,37,0.00,CLR,,0.00,13207.9,WeatherDisplay:10.37,2013-01-14 12:01:00,
2013-01-14 04:06:00,22.3,-0.1,30.11,ENE,65,1.1,0.0,37,0.00,CLR,,0.00,13207.9,WeatherDisplay:10.37,2013-01-14 12:06:00,
2013-01-14 04:11:00,21.4,-0.3,30.11,NNE,20,3.5,3.5,38,0.00,CLR,,0.00,13156.1,WeatherDisplay:10.37,2013-01-14 12:11:00,
2013-01-14 04:16:00,20.7,-1.0,30.11,ENE,65,2.3,2.3,38,0.00,CLR,,0.00,13156.1,WeatherDisplay:10.37,2013-01-14 12:16:00,
2013-01-14 04:21:00,20.3,-0.8,30.11,ENE,65,3.5,3.5,39,0.00,CLR,,0.00,13156.1,WeatherDisplay:10.37,2013-01-14 12:21:00,
2013-01-14 04:26:00,20.5,-0.1,30.11,ENE,65,2.3,0.0,40,0.00,CLR,,0.00,13156.1,WeatherDisplay:10.37,2013-01-14 12:26:00,
2013-01-14 04:31:00,20.5,-0.6,30.11,ENE,65,1.1,0.0,39,0.00,CLR,,0.00,13156.1,WeatherDisplay:10.37,2013-01-14 12:31:00,
2013-01-14 04:37:00,20.3,-0.8,30.11,WSW,245,1.1,1.1,39,0.00,CLR,,0.00,0.0,WeatherDisplay:10.37,2013-01-14 12:37:00,
2013-01-14 04:42:00,20.1,-0.4,30.11,WNW,290,1.1,1.1,40,0.00,CLR,,0.00,13104.4,WeatherDisplay:10.37,2013-01-14 12:42:00,
2013-01-14 04:47:00,19.9,0.0,30.11,WSW,245,3.5,0.0,41,0.00,CLR,,0.00,0.0,WeatherDisplay:10.37,2013-01-14 12:47:00,
2013-01-14 04:52:00,19.8,-0.2,30.11,SSE,155,2.3,0.0,41,0.00,CLR,,0.00,13104.4,WeatherDisplay:10.37,2013-01-14 12:52:00,
2013-01-14 04:57:00,19.8,0.3,30.11,WNW,290,3.5,3.5,42,0.00,CLR,,0.00,0.0,WeatherDisplay:10.37,2013-01-14 12:57:00,
2013-01-14 05:02:00,20.1,0.1,30.12,WSW,245,4.6,4.6,41,0.00,CLR,,0.00,13104.4,WeatherDisplay:10.37,2013-01-14 13:02:00,
2013-01-14 05:07:00,20.1,0.1,30.11,WSW,245,4.6,4.6,41,0.00,CLR,,0.00,0.0,WeatherDisplay:10.37,2013-01-14 13:07:00,
2013-01-14 05:12:00,20.8,0.8,30.11,NNE,20,3.5,3.5,41,0.00,CLR,,0.00,0.0,WeatherDisplay:10.37,2013-01-14 13:12:00,
2013-01-14 05:17:00,20.7,0.1,30.11,NNE,20,3.5,3.5,40,0.00,CLR,,0.00,13156.3,WeatherDisplay:10.37,2013-01-14 13:17:00,
2013-01-14 05:22:00,19.9,-0.5,30.11,NNE,20,3.5,3.5,40,0.00,CLR,,0.00,13156.3,WeatherDisplay:10.37,2013-01-14 13:22:00,
2013-01-14 05:27:00,20.3,4.2,30.11,NNW,335,3.5,3.5,49,0.00,CLR,,0.00,13156.3,WeatherDisplay:10.37,2013-01-14 13:27:00,
2013-01-14 05:32:00,20.3,-0.2,30.11,WSW,245,3.5,3.5,40,0.00,CLR,,0.00,13156.3,WeatherDisplay:10.37,2013-01-14 13:32:00,
2013-01-14 05:37:00,19.9,-0.5,30.11,WNW,290,3.5,3.5,40,0.00,CLR,,0.00,0.0,WeatherDisplay:10.37,2013-01-14 13:37:00,
2013-01-14 05:42:00,19.9,-0.5,30.11,WNW,290,3.5,3.5,40,0.00,CLR,,0.00,5.9,WeatherDisplay:10.37,2013-01-14 13:42:00,
2013-01-14 05:47:00,19.8,-0.7,30.11,WNW,290,3.5,3.5,40,0.00,CLR,,0.00,0.0,WeatherDisplay:10.37,2013-01-14 13:47:00,
2013-01-14 05:52:00,19.8,-1.2,30.11,WSW,245,2.3,2.3,39,0.00,CLR,,0.00,5.9,WeatherDisplay:10.37,2013-01-14 13:52:00,
2013-01-14 05:57:00,19.9,-1.1,30.11,WSW,245,2.3,2.3,39,0.00,CLR,,0.00,5.9,WeatherDisplay:10.37,2013-01-14 13:57:00,
2013-01-14 06:02:00,19.9,-1.1,30.12,WSW,245,2.3,2.3,39,0.00,CLR,,0.00,5.9,WeatherDisplay:10.37,2013-01-14 14:02:00,
2013-01-14 06:07:00,19.4,-1.0,30.12,WNW,290,1.1,1.1,40,0.00,CLR,,0.00,5.9,WeatherDisplay:10.37,2013-01-14 14:07:00,
2013-01-14 06:12:00,19.2,0.3,30.13,WNW,290,2.3,2.3,43,0.00,CLR,,0.00,57.7,WeatherDisplay:10.37,2013-01-14 14:12:00,
2013-01-14 06:17:00,19.4,-0.5,30.13,WNW,290,2.3,2.3,41,0.00,CLR,,0.00,57.7,WeatherDisplay:10.37,2013-01-14 14:17:00,
2013-01-14 06:22:00,19.0,-0.8,30.14,WSW,245,2.3,2.3,41,0.00,CLR,,0.00,57.7,WeatherDisplay:10.37,2013-01-14 14:22:00,
2013-01-14 06:27:00,18.9,-1.0,30.14,WNW,290,2.3,2.3,41,0.00,CLR,,0.00,57.7,WeatherDisplay:10.37,2013-01-14 14:27:00,
2013-01-14 06:32:00,18.7,-0.1,30.13,WNW,290,2.3,0.0,43,0.00,CLR,,0.00,57.7,WeatherDisplay:10.37,2013-01-14 14:32:00,
2013-01-14 06:37:00,18.7,-0.7,30.14,WNW,290,2.3,2.3,42,0.00,CLR,,0.00,57.7,WeatherDisplay:10.37,2013-01-14 14:37:00,
2013-01-14 06:42:00,19.0,2.5,30.14,NNW,335,3.5,3.5,48,0.00,CLR,,0.00,57.5,WeatherDisplay:10.37,2013-01-14 14:42:00,
2013-01-14 06:47:00,18.9,-0.5,30.15,WNW,290,1.1,1.1,42,0.00,CLR,,0.00,57.5,WeatherDisplay:10.37,2013-01-14 14:47:00,
2013-01-14 06:52:00,18.5,-0.8,30.15,WSW,245,3.5,3.5,42,0.00,CLR,,0.00,57.5,WeatherDisplay:10.37,2013-01-14 14:52:00,
2013-01-14 06:57:00,18.1,-1.1,30.15,WSW,245,2.3,2.3,42,0.00,CLR,,0.00,57.5,WeatherDisplay:10.37,2013-01-14 14:57:00,
2013-01-14 07:02:00,18.1,-1.1,30.15,WSW,245,3.8,3.8,42,0.00,CLR,,0.00,57.5,WeatherDisplay:10.37,2013-01-14 15:02:00,
2013-01-14 07:07:00,18.1,-1.1,30.16,WNW,290,3.5,3.5,42,0.00,CLR,,0.00,57.5,WeatherDisplay:10.37,2013-01-14 15:07:00,
2013-01-14 07:12:00,18.5,-0.8,30.16,WSW,245,3.5,3.5,42,0.00,CLR,,0.00,5.9,WeatherDisplay:10.37,2013-01-14 15:12:00,
2013-01-14 07:17:00,18.9,-1.0,30.17,WSW,245,2.3,2.3,41,0.00,CLR,,0.00,5.9,WeatherDisplay:10.37,2013-01-14 15:17:00,
2013-01-14 07:22:00,18.9,-1.0,30.17,WSW,245,2.3,2.3,41,0.00,CLR,,0.00,5.9,WeatherDisplay:10.37,2013-01-14 15:22:00,
2013-01-14 07:27:00,21.9,0.2,30.17,WSW,245,1.1,0.0,38,0.00,CLR,,0.00,5.9,WeatherDisplay:10.37,2013-01-14 15:27:00,
2013-01-14 07:32:00,22.8,-0.2,30.18,WNW,290,2.3,2.3,36,0.00,CLR,,0.00,5.9,WeatherDisplay:10.37,2013-01-14 15:32:00,
2013-01-14 07:37:00,23.7,0.6,30.19,WSW,245,1.1,1.1,36,0.00,BKN,,0.00,5.9,WeatherDisplay:10.37,2013-01-14 15:37:00,
2013-01-14 07:42:00,24.6,0.2,30.19,WSW,245,1.1,1.1,34,0.00,BKN,,0.00,5.9,WeatherDisplay:10.37,2013-01-14 15:42:00,
2013-01-14 07:47:00,25.3,3.2,30.19,WNW,290,2.3,2.3,38,0.00,BKN,,0.00,5.9,WeatherDisplay:10.37,2013-01-14 15:47:00,
2013-01-14 07:52:00,25.5,-0.3,30.19,WNW,290,3.5,3.5,32,0.00,BKN,,0.00,5.9,WeatherDisplay:10.37,2013-01-14 15:52:00,
2013-01-14 07:57:00,26.6,0.0,30.19,NNW,335,1.1,1.1,31,0.00,BKN,,0.00,5.9,WeatherDisplay:10.37,2013-01-14 15:57:00,
2013-01-14 08:02:00,27.0,-0.4,30.19,NNW,335,2.3,2.3,30,0.00,BKN,,0.00,5.9,WeatherDisplay:10.37,2013-01-14 16:02:00,
2013-01-14 08:07:00,27.0,-0.4,30.20,NNW,335,2.3,2.3,30,0.00,BKN,,0.00,5.9,WeatherDisplay:10.37,2013-01-14 16:07:00,
2013-01-14 08:12:00,29.3,3.7,30.20,NNE,20,3.5,3.5,33,0.00,CLR,,0.00,57.7,WeatherDisplay:10.37,2013-01-14 16:12:00,
2013-01-14 08:17:00,32.0,5.4,30.20,ENE,65,1.1,0.0,32,0.00,CLR,,0.00,57.7,WeatherDisplay:10.37,2013-01-14 16:17:00,
2013-01-14 08:22:00,34.2,5.2,30.20,NNE,20,1.1,0.0,29,0.00,CLR,,0.00,57.7,WeatherDisplay:10.37,2013-01-14 16:22:00,
2013-01-14 08:27:00,37.0,2.6,30.20,NNE,20,1.1,1.1,23,0.00,CLR,,0.00,57.7,WeatherDisplay:10.37,2013-01-14 16:27:00,
2013-01-14 08:32:00,38.5,3.8,30.20,ENE,65,1.1,0.0,23,0.00,CLR,,0.00,57.7,WeatherDisplay:10.37,2013-01-14 16:32:00,
2013-01-14 08:37:00,39.6,1.7,30.20,ENE,65,1.1,0.0,20,0.00,CLR,,0.00,57.7,WeatherDisplay:10.37,2013-01-14 16:37:00,
2013-01-14 08:42:00,40.1,-2.6,30.20,ESE,110,2.3,2.3,16,0.00,CLR,,0.00,57.7,WeatherDisplay:10.37,2013-01-14 16:42:00,
2013-01-14 08:47:00,38.7,-3.8,30.20,ENE,65,3.5,3.5,16,0.00,CLR,,0.00,57.7,WeatherDisplay:10.37,2013-01-14 16:47:00,
2013-01-14 08:52:00,37.0,-5.1,30.20,ENE,65,3.5,3.5,16,0.00,CLR,,0.00,57.7,WeatherDisplay:10.37,2013-01-14 16:52:00,
2013-01-14 08:57:00,36.9,-5.2,30.20,ESE,110,2.3,2.3,16,0.00,CLR,,0.00,57.7,WeatherDisplay:10.37,2013-01-14 16:57:00,
2013-01-14 09:02:00,36.9,-4.0,30.20,ESE,110,1.1,0.0,17,0.00,CLR,,0.00,57.7,WeatherDisplay:10.37,2013-01-14 17:02:00,
2013-01-14 09:07:00,39.7,-2.9,30.19,ENE,65,2.3,2.3,16,0.00,CLR,,0.00,57.7,WeatherDisplay:10.37,2013-01-14 17:07:00,
2013-01-14 09:12:00,41.2,-1.7,30.20,East,88,2.3,2.3,16,0.00,CLR,,0.00,109.4,WeatherDisplay:10.37,2013-01-14 17:12:00,
2013-01-14 09:17:00,40.6,-6.5,30.19,ENE,65,5.8,5.8,13,0.00,CLR,,0.00,109.4,WeatherDisplay:10.37,2013-01-14 17:17:00,
2013-01-14 09:22:00,39.6,-7.4,30.20,ENE,65,4.6,4.6,13,0.00,CLR,,0.00,109.4,WeatherDisplay:10.37,2013-01-14 17:22:00,
2013-01-14 09:27:00,39.7,-7.2,30.20,ENE,65,5.8,5.8,13,0.00,CLR,,0.00,109.4,WeatherDisplay:10.37,2013-01-14 17:27:00,
2013-01-14 09:32:00,39.2,-7.6,30.20,ENE,65,6.9,6.9,13,0.00,CLR,,0.00,109.4,WeatherDisplay:10.37,2013-01-14 17:32:00,
2013-01-14 09:37:00,38.7,-8.1,30.20,ENE,65,6.9,6.9,13,0.00,CLR,,0.00,109.4,WeatherDisplay:10.37,2013-01-14 17:37:00,
2013-01-14 09:42:00,38.8,-7.9,30.20,NNE,20,3.5,3.5,13,0.00,CLR,,0.00,213.0,WeatherDisplay:10.37,2013-01-14 17:42:00,
2013-01-14 09:47:00,39.2,-9.3,30.20,NNE,20,6.9,6.9,12,0.00,CLR,,0.00,213.0,WeatherDisplay:10.37,2013-01-14 17:47:00,
2013-01-14 09:52:00,39.6,-9.0,30.20,SSE,155,5.8,5.8,12,0.00,CLR,,0.00,213.0,WeatherDisplay:10.37,2013-01-14 17:52:00,
2013-01-14 09:57:00,37.8,-8.8,30.20,ESE,110,10.4,10.4,13,0.00,CLR,,0.00,213.0,WeatherDisplay:10.37,2013-01-14 17:57:00,
2013-01-14 10:02:00,37.6,-8.9,30.21,SE,132,3.5,3.5,13,0.00,CLR,,0.00,213.0,WeatherDisplay:10.37,2013-01-14 18:02:00,
2013-01-14 10:07:00,37.6,-7.4,30.20,ENE,65,5.8,5.8,14,0.00,CLR,,0.00,213.0,WeatherDisplay:10.37,2013-01-14 18:07:00,
2013-01-14 10:12:00,38.8,-9.6,30.20,ENE,65,5.8,5.8,12,0.00,CLR,,0.00,264.8,WeatherDisplay:10.37,2013-01-14 18:12:00,
2013-01-14 10:18:00,39.0,-9.4,30.20,ESE,110,4.6,4.6,12,0.00,CLR,,0.00,426.0,WeatherDisplay:10.37,2013-01-14 18:18:00,
2013-01-14 10:23:00,38.8,-9.6,30.20,ENE,65,6.9,6.9,12,0.00,CLR,,0.00,264.8,WeatherDisplay:10.37,2013-01-14 18:23:00,
2013-01-14 10:28:00,39.7,-10.6,30.19,ENE,65,3.5,3.5,11,0.00,CLR,,0.00,448.0,WeatherDisplay:10.37,2013-01-14 18:28:00,
2013-01-14 10:33:00,40.1,-10.3,30.19,ENE,65,4.6,4.6,11,0.00,CLR,,0.00,264.8,WeatherDisplay:10.37,2013-01-14 18:33:00,
2013-01-14 10:38:00,41.0,-9.6,30.19,ENE,65,8.1,8.1,11,0.00,CLR,,0.00,469.0,WeatherDisplay:10.37,2013-01-14 18:38:00,
2013-01-14 10:43:00,41.0,-11.6,30.19,ESE,110,5.8,5.8,10,0.00,CLR,,0.00,213.0,WeatherDisplay:10.37,2013-01-14 18:43:00,
2013-01-14 10:48:00,41.2,-11.4,30.19,ENE,65,4.6,4.6,10,0.00,CLR,,0.00,488.0,WeatherDisplay:10.37,2013-01-14 18:48:00,
2013-01-14 10:53:00,41.5,-11.1,30.19,ESE,110,4.6,4.6,10,0.00,CLR,,0.00,213.0,WeatherDisplay:10.37,2013-01-14 18:53:00,
2013-01-14 10:58:00,40.1,-10.3,30.19,NNW,335,9.2,9.2,11,0.00,CLR,,0.00,506.0,WeatherDisplay:10.37,2013-01-14 18:58:00,
2013-01-14 11:03:00,40.3,-8.4,30.19,ENE,65,9.2,9.2,12,0.00,CLR,,0.00,213.0,WeatherDisplay:10.37,2013-01-14 19:03:00,
2013-01-14 11:08:00,42.3,-8.6,30.19,ENE,65,4.6,4.6,11,0.00,CLR,,0.00,522.0,WeatherDisplay:10.37,2013-01-14 19:08:00,
2013-01-14 11:13:00,44.4,-8.9,30.19,ENE,65,10.4,10.4,10,0.00,CLR,,0.00,530.0,WeatherDisplay:10.37,2013-01-14 19:13:00,
2013-01-14 11:18:00,43.7,-9.5,30.18,NNE,20,5.8,5.8,10,0.00,CLR,,0.00,213.0,WeatherDisplay:10.37,2013-01-14 19:18:00,
2013-01-14 11:23:00,43.9,-9.3,30.18,NNE,20,9.2,9.2,10,0.00,CLR,,0.00,544.0,WeatherDisplay:10.37,2013-01-14 19:23:00,
2013-01-14 11:28:00,42.6,-10.3,30.18,ESE,110,5.8,5.8,10,0.00,CLR,,0.00,213.0,WeatherDisplay:10.37,2013-01-14 19:28:00,
2013-01-14 11:33:00,42.6,-10.3,30.17,ESE,110,5.8,5.8,10,0.00,CLR,,0.00,556.0,WeatherDisplay:10.37,2013-01-14 19:33:00,
2013-01-14 11:38:00,43.2,-9.9,30.17,ENE,65,2.3,2.3,10,0.00,CLR,,0.00,264.8,WeatherDisplay:10.37,2013-01-14 19:38:00,
2013-01-14 11:43:00,44.8,-8.6,30.17,NNE,20,3.5,3.5,10,0.00,CLR,,0.00,566.0,WeatherDisplay:10.37,2013-01-14 19:43:00,
2013-01-14 11:48:00,44.8,-8.6,30.17,NNW,335,5.8,5.8,10,0.00,CLR,,0.00,264.8,WeatherDisplay:10.37,2013-01-14 19:48:00,
2013-01-14 11:53:00,45.0,-8.5,30.17,SSE,155,3.5,3.5,10,0.00,CLR,,0.00,574.0,WeatherDisplay:10.37,2013-01-14 19:53:00,
2013-01-14 11:58:00,44.2,-9.0,30.17,ENE,65,9.2,9.2,10,0.00,CLR,,0.00,264.8,WeatherDisplay:10.37,2013-01-14 19:58:00,
2013-01-14 12:03:00,44.2,-9.0,30.17,NNW,335,12.7,12.7,10,0.00,CLR,,0.00,580.0,WeatherDisplay:10.37,2013-01-14 20:03:00,
2013-01-14 12:08:00,43.3,-9.7,30.17,ENE,65,10.4,10.4,10,0.00,CLR,,0.00,316.5,WeatherDisplay:10.37,2013-01-14 20:08:00,
2013-01-14 12:13:00,44.1,-9.2,30.17,NNE,20,8.1,8.1,10,0.00,CLR,,0.00,316.5,WeatherDisplay:10.37,2013-01-14 20:13:00,
2013-01-14 12:18:00,43.7,-9.5,30.17,NNE,20,10.4,10.4,10,0.00,CLR,,0.00,585.0,WeatherDisplay:10.37,2013-01-14 20:18:00,
2013-01-14 12:23:00,44.1,-9.2,30.17,NNE,20,9.2,9.2,10,0.00,CLR,,0.00,316.5,WeatherDisplay:10.37,2013-01-14 20:23:00,
2013-01-14 12:28:00,44.8,-8.6,30.17,NNE,20,10.4,10.4,10,0.00,CLR,,0.00,586.0,WeatherDisplay:10.37,2013-01-14 20:28:00,
2013-01-14 12:33:00,43.3,-9.7,30.17,ENE,65,12.7,12.7,10,0.00,CLR,,0.00,316.5,WeatherDisplay:10.37,2013-01-14 20:33:00,
2013-01-14 12:38:00,43.2,-9.9,30.17,ENE,65,6.9,6.9,10,0.00,CLR,,0.00,585.0,WeatherDisplay:10.37,2013-01-14 20:38:00,
2013-01-14 12:43:00,43.9,-9.3,30.17,NNE,20,8.1,8.1,10,0.00,CLR,,0.00,316.5,WeatherDisplay:10.37,2013-01-14 20:43:00,
2013-01-14 12:48:00,42.8,-10.2,30.16,NNE,20,15.0,15.0,10,0.00,CLR,,0.00,582.0,WeatherDisplay:10.37,2013-01-14 20:48:00,
2013-01-14 12:53:00,43.2,-9.9,30.16,ENE,65,8.1,8.1,10,0.00,CLR,,0.00,316.5,WeatherDisplay:10.37,2013-01-14 20:53:00,
2013-01-14 12:58:00,44.6,-8.8,30.16,NNW,335,10.4,10.4,10,0.00,CLR,,0.00,577.0,WeatherDisplay:10.37,2013-01-14 20:58:00,
2013-01-14 13:03:00,43.3,-9.7,30.16,ESE,110,16.1,16.1,10,0.00,CLR,,0.00,316.5,WeatherDisplay:10.37,2013-01-14 21:03:00,
2013-01-14 13:08:00,43.7,-9.5,30.16,NNE,20,17.3,17.3,10,0.00,CLR,,0.00,569.0,WeatherDisplay:10.37,2013-01-14 21:08:00,
2013-01-14 13:13:00,43.5,-9.6,30.16,NNE,20,10.7,10.7,10,0.00,CLR,,0.00,316.5,WeatherDisplay:10.37,2013-01-14 21:13:00,
2013-01-14 13:18:00,43.3,-9.7,30.16,NNE,20,15.0,15.0,10,0.00,CLR,,0.00,560.0,WeatherDisplay:10.37,2013-01-14 21:18:00,
2013-01-14 13:23:00,43.7,-9.5,30.16,NNE,20,13.7,13.7,10,0.00,CLR,,0.00,316.5,WeatherDisplay:10.37,2013-01-14 21:23:00,
2013-01-14 13:28:00,43.7,-9.5,30.17,NNE,20,13.8,13.8,10,0.00,CLR,,0.00,316.5,WeatherDisplay:10.37,2013-01-14 21:28:00,
2013-01-14 13:33:00,43.2,-9.9,30.17,NNE,20,16.1,16.1,10,0.00,CLR,,0.00,543.0,WeatherDisplay:10.37,2013-01-14 21:33:00,
2013-01-14 13:38:00,43.5,-9.6,30.17,NNW,335,10.4,10.4,10,0.00,CLR,,0.00,316.7,WeatherDisplay:10.37,2013-01-14 21:38:00,
2013-01-14 13:43:00,42.6,-10.3,30.16,NNE,20,12.7,12.7,10,0.00,CLR,,0.00,529.0,WeatherDisplay:10.37,2013-01-14 21:43:00,
2013-01-14 13:48:00,42.6,-10.3,30.16,NNW,335,12.7,12.7,10,0.00,CLR,,0.00,316.7,WeatherDisplay:10.37,2013-01-14 21:48:00,
2013-01-14 13:53:00,43.0,-10.0,30.17,NNE,20,9.2,9.2,10,0.00,CLR,,0.00,513.0,WeatherDisplay:10.37,2013-01-14 21:53:00,
2013-01-14 13:58:00,43.3,-9.7,30.17,NNE,20,10.4,10.4,10,0.00,CLR,,0.00,316.7,WeatherDisplay:10.37,2013-01-14 21:58:00,
2013-01-14 14:03:00,43.5,-9.6,30.17,NNE,20,8.1,8.1,10,0.00,CLR,,0.00,495.0,WeatherDisplay:10.37,2013-01-14 22:03:00,
2013-01-14 14:08:00,44.1,-9.2,30.17,NNE,20,8.1,8.1,10,0.00,CLR,,0.00,316.5,WeatherDisplay:10.37,2013-01-14 22:08:00,
2013-01-14 14:13:00,45.0,-8.5,30.17,NNE,20,8.1,8.1,10,0.00,CLR,,0.00,477.0,WeatherDisplay:10.37,2013-01-14 22:13:00,
2013-01-14 14:18:00,46.0,-7.6,30.17,NNW,335,3.5,3.5,10,0.00,CLR,,0.00,316.5,WeatherDisplay:10.37,2013-01-14 22:18:00,
2013-01-14 14:23:00,45.3,-8.2,30.17,NNE,20,5.8,5.8,10,0.00,CLR,,0.00,456.0,WeatherDisplay:10.37,2013-01-14 22:23:00,
2013-01-14 14:28:00,45.7,-7.9,30.17,NNE,20,6.9,6.9,10,0.00,CLR,,0.00,316.5,WeatherDisplay:10.37,2013-01-14 22:28:00,
2013-01-14 14:33:00,46.9,-6.9,30.17,SSE,155,5.8,5.8,10,0.00,CLR,,0.00,316.5,WeatherDisplay:10.37,2013-01-14 22:33:00,
2013-01-14 14:38:00,45.7,-7.9,30.17,ESE,110,3.5,3.5,10,0.00,CLR,,0.00,368.5,WeatherDisplay:10.37,2013-01-14 22:38:00,
2013-01-14 14:43:00,45.0,-8.5,30.17,ENE,65,6.9,6.9,10,0.00,CLR,,0.00,368.5,WeatherDisplay:10.37,2013-01-14 22:43:00,
2013-01-14 14:48:00,45.5,-8.1,30.18,East,88,5.8,5.8,10,0.00,CLR,,0.00,400.0,WeatherDisplay:10.37,2013-01-14 22:48:00,
2013-01-14 14:53:00,45.9,-7.8,30.18,ENE,65,3.5,3.5,10,0.00,CLR,,0.00,368.5,WeatherDisplay:10.37,2013-01-14 22:53:00,
2013-01-14 14:58:00,46.2,-7.5,30.18,ENE,65,6.9,6.9,10,0.00,CLR,,0.00,375.0,WeatherDisplay:10.37,2013-01-14 22:58:00,
2013-01-14 15:03:00,45.9,-7.8,30.18,ENE,65,5.8,5.8,10,0.00,CLR,,0.00,368.5,WeatherDisplay:10.37,2013-01-14 23:03:00,
2013-01-14 15:08:00,45.7,-7.9,30.18,ENE,65,5.8,5.8,10,0.00,CLR,,0.00,350.0,WeatherDisplay:10.37,2013-01-14 23:08:00,
2013-01-14 15:13:00,46.2,-7.5,30.18,SSE,155,5.8,5.8,10,0.00,CLR,,0.00,472.1,WeatherDisplay:10.37,2013-01-14 23:13:00,
2013-01-14 15:18:00,45.7,-7.9,30.18,ENE,65,5.8,5.8,10,0.00,CLR,,0.00,324.0,WeatherDisplay:10.37,2013-01-14 23:18:00,
2013-01-14 15:23:00,45.5,-8.1,30.18,NNE,20,9.2,9.2,10,0.00,CLR,,0.00,472.1,WeatherDisplay:10.37,2013-01-14 23:23:00,
2013-01-14 15:28:00,46.8,-7.1,30.19,NNE,20,5.8,5.8,10,0.00,CLR,,0.00,298.0,WeatherDisplay:10.37,2013-01-14 23:28:00,
2013-01-14 15:33:00,46.6,-7.2,30.19,ENE,65,3.5,3.5,10,0.00,CLR,,0.00,472.1,WeatherDisplay:10.37,2013-01-14 23:33:00,
2013-01-14 15:38:00,46.0,-7.6,30.19,ENE,65,5.8,5.8,10,0.00,CLR,,0.00,271.0,WeatherDisplay:10.37,2013-01-14 23:38:00,
2013-01-14 15:43:00,44.1,-9.2,30.19,ESE,110,5.8,5.8,10,0.00,CLR,,0.00,472.1,WeatherDisplay:10.37,2013-01-14 23:43:00,
2013-01-14 15:48:00,43.3,-9.7,30.19,NNE,20,5.8,5.8,10,0.00,CLR,,0.00,472.1,WeatherDisplay:10.37,2013-01-14 23:48:00,
2013-01-14 15:53:00,44.4,-8.9,30.19,NNE,20,5.8,5.8,10,0.00,CLR,,0.00,472.1,WeatherDisplay:10.37,2013-01-14 23:53:00,
2013-01-14 15:58:00,45.3,-8.2,30.19,SSE,155,4.6,4.6,10,0.00,CLR,,0.00,472.1,WeatherDisplay:10.37,2013-01-14 23:58:00,
2013-01-14 16:04:00,44.8,-8.6,30.19,ENE,65,5.8,5.8,10,0.00,CLR,,0.00,202.0,WeatherDisplay:10.37,2013-01-15 00:04:00,
2013-01-14 16:09:00,45.5,-8.1,30.19,NNE,20,5.8,0.0,10,0.00,CLR,,0.00,188.0,WeatherDisplay:10.37,2013-01-15 00:09:00,
2013-01-14 16:14:00,45.3,-8.2,30.18,ENE,65,5.8,5.8,10,0.00,CLR,,0.00,472.1,WeatherDisplay:10.37,2013-01-15 00:14:00,
2013-01-14 16:19:00,44.6,-8.8,30.18,ENE,65,3.8,3.8,10,0.00,CLR,,0.00,472.1,WeatherDisplay:10.37,2013-01-15 00:19:00,
2013-01-14 16:24:00,44.1,-9.2,30.19,ESE,110,3.5,3.5,10,0.00,CLR,,0.00,148.0,WeatherDisplay:10.37,2013-01-15 00:24:00,
2013-01-14 16:29:00,42.1,-10.7,30.19,ESE,110,5.8,5.8,10,0.00,CLR,,0.00,135.0,WeatherDisplay:10.37,2013-01-15 00:29:00,
2013-01-14 16:34:00,41.7,-11.0,30.19,NNE,20,2.3,2.3,10,0.00,CLR,,0.00,472.1,WeatherDisplay:10.37,2013-01-15 00:34:00,
2013-01-14 16:39:00,41.7,-11.0,30.19,ENE,65,2.3,2.3,10,0.00,CLR,,0.00,420.5,WeatherDisplay:10.37,2013-01-15 00:39:00,
2013-01-14 16:44:00,41.4,-11.3,30.18,ENE,65,1.1,0.0,10,0.00,CLR,,0.00,96.0,WeatherDisplay:10.37,2013-01-15 00:44:00,
2013-01-14 16:49:00,41.0,-11.6,30.19,ENE,65,1.1,0.0,10,0.00,CLR,,0.00,83.0,WeatherDisplay:10.37,2013-01-15 00:49:00,
2013-01-14 16:54:00,38.8,-11.3,30.19,NNE,20,1.1,0.0,11,0.00,CLR,,0.00,71.0,WeatherDisplay:10.37,2013-01-15 00:54:00,
2013-01-14 16:59:00,37.0,-11.0,30.19,ENE,65,1.1,0.0,12,0.00,CLR,,0.00,58.0,WeatherDisplay:10.37,2013-01-15 00:59:00,
2013-01-14 17:04:00,36.7,-11.3,30.19,NNE,20,2.3,2.3,12,0.00,CLR,,0.00,46.0,WeatherDisplay:10.37,2013-01-15 01:04:00,
2013-01-14 17:09:00,36.7,-11.3,30.19,NNE,20,2.3,2.3,12,0.00,CLR,,0.00,34.0,WeatherDisplay:10.37,2013-01-15 01:09:00,
2013-01-14 17:14:00,34.2,-10.2,30.20,ENE,65,1.1,0.0,14,0.00,CLR,,0.00,23.0,WeatherDisplay:10.37,2013-01-15 01:14:00,
2013-01-14 17:19:00,33.6,-5.5,30.19,NNE,20,1.1,1.1,18,0.00,CLR,,0.00,11.0,WeatherDisplay:10.37,2013-01-15 01:19:00,
2013-01-14 17:24:00,33.4,-8.0,30.20,NNW,335,2.3,2.3,16,0.00,CLR,,0.00,420.5,WeatherDisplay:10.37,2013-01-15 01:24:00,
2013-01-14 17:29:00,33.4,-8.0,30.20,NNE,20,1.1,0.0,16,0.00,CLR,,0.00,420.5,WeatherDisplay:10.37,2013-01-15 01:29:00,
2013-01-14 17:34:00,33.1,-8.3,30.20,NNE,20,1.1,1.1,16,0.00,CLR,,0.00,0.0,WeatherDisplay:10.37,2013-01-15 01:34:00,
2013-01-14 17:39:00,33.1,5.7,30.20,NNW,335,1.1,1.1,31,0.00,CLR,,0.00,0.0,WeatherDisplay:10.37,2013-01-15 01:39:00,
2013-01-14 17:44:00,33.4,-2.4,30.21,NNW,335,2.3,2.3,21,0.00,CLR,,0.00,368.7,WeatherDisplay:10.37,2013-01-15 01:44:00,
2013-01-14 17:49:00,33.3,-5.8,30.20,WNW,290,2.3,2.3,18,0.00,CLR,,0.00,0.0,WeatherDisplay:10.37,2013-01-15 01:49:00,
2013-01-14 17:54:00,32.9,-7.2,30.20,WNW,290,1.1,0.0,17,0.00,CLR,,0.00,0.0,WeatherDisplay:10.37,2013-01-15 01:54:00,
2013-01-14 17:59:00,32.7,-6.2,30.20,SSE,155,1.1,0.0,18,0.00,CLR,,0.00,0.0,WeatherDisplay:10.37,2013-01-15 01:59:00,
2013-01-14 18:04:00,32.5,-6.4,30.21,SSE,155,0.0,0.0,18,0.00,CLR,,0.00,0.0,WeatherDisplay:10.37,2013-01-15 02:04:00,
2013-01-14 18:09:00,31.8,-5.8,30.22,SSE,155,1.1,0.0,19,0.00,CLR,,0.00,0.0,WeatherDisplay:10.37,2013-01-15 02:09:00,
2013-01-14 18:14:00,31.5,-5.1,30.21,NNE,20,1.1,0.0,20,0.00,CLR,,0.00,0.0,WeatherDisplay:10.37,2013-01-15 02:14:00,
2013-01-14 18:19:00,32.0,-2.6,30.21,NNW,335,3.5,3.5,22,0.00,CLR,,0.00,0.0,WeatherDisplay:10.37,2013-01-15 02:19:00,
2013-01-14 18:24:00,31.6,-3.9,30.21,NNW,335,3.5,3.5,21,0.00,CLR,,0.00,0.0,WeatherDisplay:10.37,2013-01-15 02:24:00,
2013-01-14 18:29:00,31.5,-5.1,30.22,WSW,245,2.3,2.3,20,0.00,CLR,,0.00,0.0,WeatherDisplay:10.37,2013-01-15 02:29:00,
2013-01-14 18:34:00,31.1,-5.4,30.22,WSW,245,2.3,2.3,20,0.00,CLR,,0.00,0.0,WeatherDisplay:10.37,2013-01-15 02:34:00,
2013-01-14 18:39:00,31.1,-5.4,30.22,SSW,200,3.5,3.5,20,0.00,CLR,,0.00,0.0,WeatherDisplay:10.37,2013-01-15 02:39:00,
2013-01-14 18:44:00,31.1,-5.4,30.22,WSW,245,4.6,4.6,20,0.00,CLR,,0.00,0.0,WeatherDisplay:10.37,2013-01-15 02:44:00,
2013-01-14 18:49:00,31.1,-6.4,30.22,WSW,245,3.5,3.5,19,0.00,CLR,,0.00,0.0,WeatherDisplay:10.37,2013-01-15 02:49:00,
2013-01-14 18:54:00,30.9,-6.6,30.22,WNW,290,3.5,3.5,19,0.00,CLR,,0.00,0.0,WeatherDisplay:10.37,2013-01-15 02:54:00,
2013-01-14 18:59:00,30.6,-5.8,30.22,WSW,245,2.3,2.3,20,0.00,CLR,,0.00,0.0,WeatherDisplay:10.37,2013-01-15 02:59:00,
2013-01-14 19:04:00,30.4,-6.0,30.22,SSW,200,1.1,1.1,20,0.00,CLR,,0.00,0.0,WeatherDisplay:10.37,2013-01-15 03:04:00,
2013-01-14 19:09:00,30.2,-3.2,30.22,WNW,290,3.5,3.5,23,0.00,CLR,,0.00,316.9,WeatherDisplay:10.37,2013-01-15 03:09:00,
2013-01-14 19:14:00,30.4,-4.0,30.23,NNW,335,3.5,3.5,22,0.00,CLR,,0.00,0.0,WeatherDisplay:10.37,2013-01-15 03:14:00,
2013-01-14 19:19:00,30.2,-4.2,30.23,WNW,290,2.3,2.3,22,0.00,CLR,,0.00,316.9,WeatherDisplay:10.37,2013-01-15 03:19:00,
2013-01-14 19:24:00,30.0,-4.3,30.23,WSW,245,1.1,0.0,22,0.00,CLR,,0.00,0.0,WeatherDisplay:10.37,2013-01-15 03:24:00,
2013-01-14 19:29:00,29.8,-4.5,30.22,SSW,200,1.1,0.0,22,0.00,CLR,,0.00,0.0,WeatherDisplay:10.37,2013-01-15 03:29:00,
2013-01-14 19:34:00,29.5,-4.8,30.22,WSW,245,2.3,2.3,22,0.00,CLR,,0.00,0.0,WeatherDisplay:10.37,2013-01-15 03:34:00,
2013-01-14 19:39:00,29.5,-4.8,30.23,WSW,245,2.3,2.3,22,0.00,CLR,,0.00,0.0,WeatherDisplay:10.37,2013-01-15 03:39:00,
2013-01-14 19:44:00,29.7,-4.6,30.22,WNW,290,2.3,2.3,22,0.00,CLR,,0.00,0.0,WeatherDisplay:10.37,2013-01-15 03:44:00,
2013-01-14 19:49:00,29.7,-4.6,30.22,WNW,290,2.3,2.3,22,0.00,CLR,,0.00,0.0,WeatherDisplay:10.37,2013-01-15 03:49:00,
2013-01-14 19:54:00,29.5,-3.8,30.22,WSW,245,2.3,2.3,23,0.00,CLR,,0.00,0.0,WeatherDisplay:10.37,2013-01-15 03:54:00,
2013-01-14 19:59:00,29.1,-4.1,30.22,NNW,335,1.1,0.0,23,0.00,CLR,,0.00,0.0,WeatherDisplay:10.37,2013-01-15 03:59:00,
2013-01-14 20:04:00,29.1,-4.1,30.22,NNW,335,1.1,0.0,23,0.00,CLR,,0.00,0.0,WeatherDisplay:10.37,2013-01-15 04:04:00,
2013-01-14 20:09:00,28.6,-3.7,30.22,WNW,290,1.1,0.0,24,0.00,CLR,,0.00,0.0,WeatherDisplay:10.37,2013-01-15 04:09:00,
2013-01-14 20:14:00,28.2,-4.9,30.23,WNW,290,0.0,0.0,23,0.00,CLR,,0.00,0.0,WeatherDisplay:10.37,2013-01-15 04:14:00,
2013-01-14 20:19:00,27.9,-3.5,30.23,NNE,20,2.3,2.3,25,0.00,CLR,,0.00,0.0,WeatherDisplay:10.37,2013-01-15 04:19:00,
2013-01-14 20:24:00,27.0,-3.4,30.24,ENE,65,2.3,2.3,26,0.00,CLR,,0.00,213.4,WeatherDisplay:10.37,2013-01-15 04:24:00,
2013-01-14 20:29:00,26.4,-3.1,30.24,ESE,110,1.1,0.0,27,0.00,CLR,,0.00,0.0,WeatherDisplay:10.37,2013-01-15 04:29:00,
2013-01-14 20:34:00,26.4,-2.3,30.25,ENE,65,1.1,0.0,28,0.00,CLR,,0.00,213.4,WeatherDisplay:10.37,2013-01-15 04:34:00,
2013-01-14 20:39:00,26.2,-3.3,30.24,SSE,155,1.1,0.0,27,0.00,CLR,,0.00,0.0,WeatherDisplay:10.37,2013-01-15 04:39:00,
2013-01-14 20:44:00,26.6,-3.0,30.24,WSW,245,2.3,2.3,27,0.00,CLR,,0.00,0.0,WeatherDisplay:10.37,2013-01-15 04:44:00,
2013-01-14 20:49:00,27.3,-3.1,30.25,NNE,20,1.1,0.0,26,0.00,CLR,,0.00,0.0,WeatherDisplay:10.37,2013-01-15 04:49:00,
2013-01-14 20:54:00,27.1,-3.3,30.24,WNW,290,1.1,1.1,26,0.00,CLR,,0.00,0.0,WeatherDisplay:10.37,2013-01-15 04:54:00,
2013-01-14 20:59:00,27.9,3.1,30.25,WNW,290,2.3,2.3,34,0.00,CLR,,0.00,0.0,WeatherDisplay:10.37,2013-01-15 04:59:00,
2013-01-14 21:00:00,27.9,1.8,30.25,WNW,297,1.0,2.0,32,0.00,CLR,,0.00,0.0,WeatherDisplay:10.37,2013-01-15 05:00:00,
2013-01-14 21:04:00,27.9,-1.1,30.25,WNW,290,1.1,1.1,28,0.00,CLR,,0.00,0.0,WeatherDisplay:10.37,2013-01-15 05:04:00,
2013-01-14 21:09:00,27.9,-1.9,30.25,WSW,245,3.5,3.5,27,0.00,CLR,,0.00,0.0,WeatherDisplay:10.37,2013-01-15 05:09:00,
2013-01-14 21:14:00,27.3,-1.6,30.25,WNW,290,3.5,3.5,28,0.00,CLR,,0.00,161.6,WeatherDisplay:10.37,2013-01-15 05:14:00,
2013-01-14 21:19:00,27.1,-1.0,30.25,WSW,245,3.5,3.5,29,0.00,CLR,,0.00,0.0,WeatherDisplay:10.37,2013-01-15 05:19:00,
2013-01-14 21:24:00,27.0,-1.9,30.24,WSW,245,3.5,3.5,28,0.00,CLR,,0.00,161.6,WeatherDisplay:10.37,2013-01-15 05:24:00,
2013-01-14 21:29:00,27.0,-1.9,30.25,WNW,290,3.5,3.5,28,0.00,CLR,,0.00,0.0,WeatherDisplay:10.37,2013-01-15 05:29:00,
2013-01-14 21:34:00,26.8,-2.0,30.25,SSE,155,1.1,0.0,28,0.00,CLR,,0.00,161.6,WeatherDisplay:10.37,2013-01-15 05:34:00,
2013-01-14 21:39:00,26.8,-2.8,30.24,SSE,155,1.1,0.0,27,0.00,CLR,,0.00,109.8,WeatherDisplay:10.37,2013-01-15 05:39:00,
2013-01-14 21:44:00,26.8,-2.8,30.24,SSE,155,1.1,0.0,27,0.00,CLR,,0.00,109.8,WeatherDisplay:10.37,2013-01-15 05:44:00,
2013-01-14 21:49:00,26.4,-2.3,30.25,SSE,155,1.1,0.0,28,0.00,CLR,,0.00,109.8,WeatherDisplay:10.37,2013-01-15 05:49:00,
2013-01-14 21:54:00,26.2,-1.8,30.25,SSW,200,2.3,2.3,29,0.00,CLR,,0.00,109.8,WeatherDisplay:10.37,2013-01-15 05:54:00,
2013-01-14 21:59:00,26.1,-1.9,30.24,WSW,245,1.1,1.1,29,0.00,CLR,,0.00,109.8,WeatherDisplay:10.37,2013-01-15 05:59:00,
2013-01-14 22:04:00,26.2,-1.8,30.24,WSW,245,2.3,2.3,29,0.00,CLR,,0.00,109.8,WeatherDisplay:10.37,2013-01-15 06:04:00,
2013-01-14 22:09:00,26.1,-1.9,30.24,SSW,200,2.3,2.3,29,0.00,CLR,,0.00,58.1,WeatherDisplay:10.37,2013-01-15 06:09:00,
2013-01-14 22:14:00,25.9,-1.4,30.24,SSW,200,2.3,2.3,30,0.00,CLR,,0.00,58.1,WeatherDisplay:10.37,2013-01-15 06:14:00,
2013-01-14 22:19:00,26.1,-1.2,30.24,WSW,245,1.1,1.1,30,0.00,CLR,,0.00,58.1,WeatherDisplay:10.37,2013-01-15 06:19:00,
2013-01-14 22:24:00,25.9,-1.4,30.24,WSW,245,2.3,2.3,30,0.00,CLR,,0.00,58.1,WeatherDisplay:10.37,2013-01-15 06:24:00,
2013-01-14 22:29:00,25.9,-1.4,30.24,WSW,245,1.1,1.1,30,0.00,CLR,,0.00,58.1,WeatherDisplay:10.37,2013-01-15 06:29:00,
2013-01-14 22:34:00,26.1,-1.2,30.24,WSW,245,2.3,2.3,30,0.00,CLR,,0.00,58.1,WeatherDisplay:10.37,2013-01-15 06:34:00,
2013-01-14 22:39:00,26.1,-1.2,30.24,WSW,245,1.1,0.0,30,0.00,CLR,,0.00,6.3,WeatherDisplay:10.37,2013-01-15 06:39:00,
2013-01-14 22:44:00,26.1,-1.2,30.24,SSE,155,1.1,0.0,30,0.00,CLR,,0.00,0.0,WeatherDisplay:10.37,2013-01-15 06:44:00,
2013-01-14 22:49:00,25.5,-1.0,30.24,SSE,155,1.1,0.0,31,0.00,CLR,,0.00,6.3,WeatherDisplay:10.37,2013-01-15 06:49:00,
2013-01-14 22:54:00,25.3,-1.1,30.24,SSW,200,1.1,0.0,31,0.00,CLR,,0.00,6.3,WeatherDisplay:10.37,2013-01-15 06:54:00,
2013-01-14 22:59:00,25.2,-2.0,30.24,WSW,245,3.5,3.5,30,0.00,CLR,,0.00,6.3,WeatherDisplay:10.37,2013-01-15 06:59:00,
2013-01-14 23:04:00,25.2,-2.0,30.24,SSW,200,3.5,3.5,30,0.00,CLR,,0.00,6.3,WeatherDisplay:10.37,2013-01-15 07:04:00,
2013-01-14 23:09:00,25.7,-1.5,30.24,SSW,200,3.5,3.5,30,0.00,CLR,,0.00,13208.3,WeatherDisplay:10.37,2013-01-15 07:09:00,
2013-01-14 23:14:00,25.7,-1.5,30.24,WSW,245,3.5,3.5,30,0.00,CLR,,0.00,13208.3,WeatherDisplay:10.37,2013-01-15 07:14:00,
2013-01-14 23:19:00,25.7,-1.5,30.24,WSW,245,2.3,2.3,30,0.00,CLR,,0.00,13208.3,WeatherDisplay:10.37,2013-01-15 07:19:00,
2013-01-14 23:24:00,25.7,-1.5,30.24,WSW,245,3.5,3.5,30,0.00,CLR,,0.00,13208.3,WeatherDisplay:10.37,2013-01-15 07:24:00,
2013-01-14 23:29:00,25.7,-1.5,30.24,SSW,200,3.5,3.5,30,0.00,CLR,,0.00,13208.3,WeatherDisplay:10.37,2013-01-15 07:29:00,
2013-01-14 23:34:00,25.7,-1.5,30.24,WSW,245,2.3,2.3,30,0.00,CLR,,0.00,13208.3,WeatherDisplay:10.37,2013-01-15 07:34:00,
2013-01-14 23:40:00,25.7,-1.5,30.24,SSW,207,0.0,3.0,30,0.00,CLR,,0.00,0.0,WeatherDisplay:10.37,2013-01-15 07:40:00,
2013-01-14 23:45:00,25.3,-1.1,30.24,WSW,245,2.3,2.3,31,0.00,CLR,,0.00,13156.7,WeatherDisplay:10.37,2013-01-15 07:45:00,
2013-01-14 23:50:00,25.3,-1.1,30.24,WSW,245,4.6,4.6,31,0.00,CLR,,0.00,0.0,WeatherDisplay:10.37,2013-01-15 07:50:00,
2013-01-14 23:55:00,25.5,-1.7,30.24,WSW,245,4.6,4.6,30,0.00,CLR,,0.00,13156.7,WeatherDisplay:10.37,2013-01-15 07:55:00,